Iron Mountain, MI

8:04 AM CDT on September 19, 2017 (GMT -0500)
Ford

Weather History for KIMT - April, 2013

Change the Weather History Date:

Saturday, April 13, 2013

  Actual Average Record
Temperature  
Mean Temperature 28 °F -  
Max Temperature 37 °F 51 °F 76 °F (1931)
Min Temperature 21 °F 28 °F 12 °F (1940)
Degree Days  
Heating Degree Days 37    
Moisture  
Dew Point 24 °F    
Average Humidity 81    
Maximum Humidity 96    
Minimum Humidity 61    
Precipitation  
Precipitation 0.00 in - - ()
Sea Level Pressure  
Sea Level Pressure 29.75 in    
Wind  
Wind Speed 5 mph (NW)    
Max Wind Speed 16 mph    
Max Gust Speed 30 mph    
Visibility 6 miles    
Events Snow    
Averages and records for this station are not official NWS values.
T = Trace of Precipitation, MM = Missing Value Source: NWS Daily Summary

Daily Weather History Graph

Daily Weather History Graph

Search for Another Location

Airport or City:

Trip Planner

Search our weather history database for the weather conditions in past years. The results will help you decide how hot, cold, wet, or windy it might be!

Date:

Astronomy

Apr. 13, 2013 Rise Set
Actual Time 6:09 AM CDT 7:36 PM CDT
Civil Twilight 5:38 AM CDT 8:08 PM CDT
Nautical Twilight 5:01 AM CDT 8:45 PM CDT
Astronomical Twilight 4:21 AM CDT 9:26 PM CDT
Moon 7:52 AM CDT (4/13) 11:09 PM CDT (4/13)
Length of Visible Light 14h 29m
Length of Day
13h 27m
Waxing Crescent, 10% of the Moon is Illuminated
Apr 13
Waxing Crescent
Apr 18
First Quarter
Apr 25
Full
May 2
Last Quarter
May 9
New

Hourly Weather History & Observations

Time (CDT) Temp. Windchill Dew Point Humidity Pressure Visibility Wind Dir Wind Speed Gust Speed Precip Events Conditions
12:54 AM 27.0 °F - 26.1 °F 96% 29.73 in 6.0 mi Calm Calm - 0.00 in   Overcast
1:35 AM 26.6 °F - 24.8 °F 93% 29.68 in 2.0 mi Calm Calm - N/A   Overcast
1:47 AM 26.6 °F - 24.8 °F 93% 29.68 in 6.0 mi Calm Calm - N/A   Overcast
1:54 AM 26.1 °F - 25.0 °F 96% 29.73 in 10.0 mi Calm Calm - N/A   Overcast
2:54 AM 26.1 °F 20.5 °F 24.1 °F 92% 29.71 in 9.0 mi NNW 4.6 mph - 0.00 in   Overcast
3:54 AM 27.0 °F 23.0 °F 24.1 °F 89% 29.71 in 10.0 mi NW 3.5 mph - N/A   Overcast
4:54 AM 26.1 °F 21.9 °F 24.1 °F 92% 29.71 in 10.0 mi NW 3.5 mph - 0.00 in   Overcast
5:17 AM 26.6 °F 21.2 °F 24.8 °F 93% 29.66 in 2.5 mi NW 4.6 mph - 0.00 in Snow Light Snow
5:24 AM 26.6 °F 22.6 °F 24.8 °F 93% 29.67 in 2.5 mi NW 3.5 mph - 0.00 in Snow Light Snow
5:35 AM 26.6 °F 22.6 °F 24.8 °F 93% 29.67 in 3.0 mi WNW 3.5 mph - 0.00 in Snow Light Snow
5:54 AM 26.1 °F - 24.1 °F 92% 29.72 in 4.0 mi Calm Calm - 0.00 in Snow Light Snow
6:54 AM 26.1 °F - 24.1 °F 92% 29.72 in 4.0 mi Calm Calm - 0.00 in Snow Light Snow
7:54 AM 27.0 °F 20.5 °F 23.0 °F 85% 29.73 in 10.0 mi WNW 5.8 mph - 0.00 in   Overcast
8:19 AM 28.4 °F 22.2 °F 23.0 °F 80% 29.69 in 1.8 mi WNW 5.8 mph - 0.00 in Snow Light Snow
8:27 AM 28.4 °F 20.4 °F 24.8 °F 86% 29.68 in 1.5 mi WNW 8.1 mph - 0.00 in Snow Light Snow
8:54 AM 28.9 °F 22.8 °F 24.1 °F 82% 29.73 in 1.8 mi WNW 5.8 mph - 0.00 in Snow Light Snow
9:04 AM 28.4 °F 19.7 °F 24.8 °F 86% 29.68 in 2.5 mi WNW 9.2 mph - 0.00 in Snow Light Snow
9:13 AM 28.4 °F 19.1 °F 24.8 °F 86% 29.68 in 4.0 mi West 10.4 mph - 0.00 in Snow Light Snow
9:54 AM 30.9 °F 23.5 °F 24.1 °F 76% 29.73 in 10.0 mi NW 8.1 mph - 0.00 in   Overcast
10:17 AM 30.2 °F 22.6 °F 24.8 °F 80% 29.69 in 1.8 mi WNW 8.1 mph - 0.00 in Snow Light Snow
10:32 AM 30.2 °F 20.8 °F 26.6 °F 86% 29.69 in 2.5 mi WNW 11.5 mph - 0.00 in Snow Light Snow
10:52 AM 30.2 °F 20.8 °F 26.6 °F 86% 29.70 in 1.5 mi WNW 11.5 mph - 0.00 in Snow Light Snow
10:54 AM 30.9 °F 22.8 °F 26.1 °F 82% 29.75 in 1.8 mi West 9.2 mph - 0.00 in Snow Light Snow
10:58 AM 32.0 °F 23.0 °F 24.8 °F 75% 29.70 in 3.0 mi West 11.5 mph - 0.00 in Snow Light Snow
11:29 AM 33.8 °F 25.3 °F 24.8 °F 70% 29.70 in 8.0 mi WNW 11.5 mph - 0.00 in   Overcast
11:54 AM 34.0 °F 26.0 °F 25.0 °F 70% 29.75 in 10.0 mi NW 10.4 mph - 0.00 in   Overcast
12:54 PM 35.1 °F 27.9 °F 24.1 °F 64% 29.75 in 9.0 mi NW 9.2 mph - 0.00 in   Overcast
1:37 PM 33.8 °F 27.7 °F 26.6 °F 75% 29.72 in 2.5 mi North 6.9 mph - 0.00 in Snow Light Snow
1:45 PM 35.6 °F 28.0 °F 24.8 °F 65% 29.72 in 9.0 mi NNW 10.4 mph - 0.00 in   Overcast
1:54 PM 35.1 °F 26.4 °F 23.0 °F 61% 29.77 in 10.0 mi WNW 12.7 mph - 0.00 in   Overcast
2:54 PM 33.1 °F 22.6 °F 28.0 °F 82% 29.80 in 1.8 mi NNW 16.1 mph 29.9 mph 0.00 in Snow Light Snow
3:03 PM 32.0 °F 23.0 °F 28.4 °F 87% 29.75 in 1.0 mi NNW 11.5 mph - 0.00 in Snow Light Snow
3:12 PM 33.8 °F 27.0 °F 28.4 °F 81% 29.75 in 3.0 mi North 8.1 mph - 0.00 in Snow Light Snow
3:54 PM 34.0 °F 28.0 °F 26.1 °F 73% 29.81 in 7.0 mi NW 6.9 mph 18.4 mph 0.00 in Snow Light Snow
4:54 PM 34.0 °F 26.6 °F 27.0 °F 75% 29.82 in 4.0 mi NNW 9.2 mph - 0.00 in Snow Light Snow
5:54 PM 35.1 °F 25.5 °F 23.0 °F 61% 29.85 in 10.0 mi NW 15.0 mph 21.9 mph 0.00 in   Overcast
7:54 PM 30.9 °F 22.8 °F 19.9 °F 64% 29.89 in 10.0 mi NW 9.2 mph - N/A   Clear
8:54 PM 28.9 °F 21.9 °F 19.9 °F 69% 29.92 in 10.0 mi NW 6.9 mph - N/A   Clear
9:54 PM 26.1 °F - 19.0 °F 75% 29.94 in 10.0 mi Calm Calm - N/A   Clear
10:54 PM 21.9 °F 15.7 °F 17.1 °F 82% 29.96 in 10.0 mi NW 4.6 mph - N/A   Clear
11:54 PM 26.1 °F 17.6 °F 19.0 °F 75% 29.97 in 10.0 mi NNW 8.1 mph - N/A   Scattered Clouds